TimeCST,TemperatureF,Dew PointF,Humidity,Sea Level PressureIn,VisibilityMPH,Wind Direction,Wind SpeedMPH,Gust SpeedMPH,PrecipitationIn,Events,Conditions,WindDirDegrees,DateUTC
12:15 AM,23.9,19.6,84,30.39,10.0,SE,5.8,-,N/A,,Scattered Clouds,140,2013-01-27 06:15:00
12:35 AM,23.9,19.4,83,30.38,10.0,SSE,5.8,-,N/A,,Scattered Clouds,150,2013-01-27 06:35:00
12:55 AM,23.9,19.2,82,30.38,10.0,SSE,6.9,-,N/A,,Clear,150,2013-01-27 06:55:00
1:15 AM,23.9,18.7,80,30.38,10.0,SSE,6.9,-,N/A,,Clear,150,2013-01-27 07:15:00
1:35 AM,23.5,18.5,81,30.40,10.0,SSE,5.8,-,N/A,,Clear,160,2013-01-27 07:35:00
1:55 AM,22.5,17.4,81,30.40,10.0,SE,5.8,-,N/A,,Clear,140,2013-01-27 07:55:00
2:15 AM,21.2,16.7,83,30.40,10.0,SSE,5.8,-,N/A,,Scattered Clouds,150,2013-01-27 08:15:00
2:35 AM,20.5,16.2,83,30.39,10.0,SSE,8.1,-,N/A,,Scattered Clouds,150,2013-01-27 08:35:00
3:15 AM,21.0,16.2,81,30.39,10.0,SSE,6.9,-,N/A,,Clear,150,2013-01-27 09:15:00
3:35 AM,20.5,15.6,81,30.38,10.0,SSE,6.9,-,N/A,,Clear,150,2013-01-27 09:35:00
3:55 AM,19.8,15.1,82,30.38,10.0,SSE,6.9,-,N/A,,Clear,150,2013-01-27 09:55:00
4:15 AM,18.9,14.5,83,30.38,10.0,SE,5.8,-,N/A,,Clear,130,2013-01-27 10:15:00
4:35 AM,18.9,14.5,83,30.37,10.0,ESE,6.9,-,N/A,,Clear,120,2013-01-27 10:35:00
4:55 AM,19.2,14.7,83,30.37,10.0,SE,6.9,-,N/A,,Clear,130,2013-01-27 10:55:00
5:15 AM,19.9,15.4,83,30.37,10.0,SE,6.9,-,N/A,,Clear,130,2013-01-27 11:15:00
5:35 AM,20.8,16.2,82,30.36,10.0,SE,8.1,-,N/A,,Clear,130,2013-01-27 11:35:00
6:15 AM,21.7,16.7,81,30.36,10.0,SE,10.4,-,N/A,,Clear,140,2013-01-27 12:15:00
6:35 AM,22.1,16.7,80,30.36,10.0,SSE,12.7,-,N/A,,Clear,150,2013-01-27 12:35:00
6:55 AM,22.6,17.1,79,30.36,10.0,SSE,11.5,-,N/A,,Clear,150,2013-01-27 12:55:00
7:15 AM,22.6,17.2,80,30.36,10.0,SSE,12.7,-,N/A,,Clear,150,2013-01-27 13:15:00
7:35 AM,23.0,17.4,79,30.37,10.0,SSE,13.8,-,N/A,,Clear,150,2013-01-27 13:35:00
7:55 AM,23.0,17.4,79,30.35,10.0,SSE,12.7,-,N/A,,Clear,150,2013-01-27 13:55:00
8:15 AM,23.5,17.8,79,30.35,7.0,SSE,13.8,-,N/A,,Clear,150,2013-01-27 14:15:00
8:35 AM,23.9,18.1,79,30.36,7.0,SSE,15.0,-,N/A,,Mostly Cloudy,150,2013-01-27 14:35:00
8:55 AM,24.3,18.5,79,30.36,7.0,SSE,10.4,-,N/A,,Scattered Clouds,150,2013-01-27 14:55:00
9:15 AM,24.6,18.9,79,30.36,7.0,SE,11.5,-,N/A,,Mostly Cloudy,140,2013-01-27 15:15:00
9:35 AM,25.0,19.0,78,30.36,7.0,SSE,10.4,-,N/A,,Overcast,150,2013-01-27 15:35:00
9:55 AM,25.5,19.4,78,30.37,7.0,SSE,12.7,-,N/A,,Overcast,150,2013-01-27 15:55:00
10:15 AM,25.9,19.6,77,30.37,10.0,SSE,10.4,-,N/A,,Overcast,160,2013-01-27 16:15:00
10:35 AM,26.6,20.1,77,30.37,7.0,SSE,10.4,-,N/A,,Mostly Cloudy,150,2013-01-27 16:35:00
10:55 AM,27.0,20.3,76,30.35,10.0,SE,10.4,-,N/A,,Mostly Cloudy,140,2013-01-27 16:55:00
11:15 AM,27.5,20.8,76,30.35,10.0,SE,9.2,-,N/A,,Overcast,130,2013-01-27 17:15:00
11:35 AM,28.2,21.2,75,30.33,10.0,SE,10.4,-,N/A,,Overcast,140,2013-01-27 17:35:00
11:55 AM,28.6,21.2,74,30.32,10.0,SE,11.5,-,N/A,,Overcast,140,2013-01-27 17:55:00
12:15 PM,29.3,21.4,72,30.29,10.0,ESE,8.1,11.5,N/A,,Overcast,120,2013-01-27 18:15:00
12:35 PM,29.7,22.1,73,30.26,10.0,SE,10.4,-,N/A,,Overcast,130,2013-01-27 18:35:00
12:55 PM,29.5,21.9,73,30.24,10.0,SE,13.8,-,N/A,,Overcast,130,2013-01-27 18:55:00
1:15 PM,29.8,22.3,73,30.23,10.0,SE,12.7,-,N/A,,Overcast,140,2013-01-27 19:15:00
1:35 PM,30.2,22.5,73,30.22,10.0,SE,13.8,-,N/A,,Overcast,130,2013-01-27 19:35:00
1:55 PM,30.6,22.3,71,30.22,10.0,ESE,8.1,-,N/A,,Overcast,110,2013-01-27 19:55:00
2:15 PM,30.9,22.6,71,30.20,10.0,ESE,10.4,-,N/A,,Overcast,120,2013-01-27 20:15:00
2:35 PM,31.1,23.2,72,30.19,10.0,ESE,10.4,-,N/A,,Overcast,120,2013-01-27 20:35:00
2:55 PM,31.5,23.0,71,30.19,10.0,SE,10.4,-,N/A,,Overcast,130,2013-01-27 20:55:00
3:15 PM,31.8,23.5,71,30.18,10.0,SE,12.7,16.1,N/A,,Overcast,130,2013-01-27 21:15:00
3:35 PM,32.0,23.7,71,30.18,10.0,ESE,8.1,-,N/A,,Overcast,120,2013-01-27 21:35:00
3:55 PM,32.0,23.9,72,30.19,5.0,ESE,8.1,-,N/A,,Overcast,120,2013-01-27 21:55:00
4:15 PM,32.0,25.0,75,30.17,3.0,ESE,11.5,-,N/A,,Overcast,120,2013-01-27 22:15:00
4:35 PM,31.8,25.7,78,30.18,7.0,SE,11.5,-,N/A,,Overcast,130,2013-01-27 22:35:00
4:55 PM,31.8,26.1,79,30.18,5.0,ESE,11.5,-,N/A,,Overcast,120,2013-01-27 22:55:00
5:15 PM,31.8,27.1,83,30.18,4.0,SE,10.4,-,N/A,,Overcast,130,2013-01-27 23:15:00
5:35 PM,31.6,28.0,87,30.18,4.0,SE,10.4,-,N/A,,Overcast,140,2013-01-27 23:35:00
5:55 PM,31.6,28.8,89,30.15,5.0,SE,15.0,-,N/A,,Overcast,130,2013-01-27 23:55:00
6:15 PM,31.8,29.1,90,30.13,4.0,SE,15.0,-,N/A,,Overcast,130,2013-01-28 00:15:00
6:35 PM,32.0,29.7,91,30.12,5.0,ESE,15.0,-,N/A,,Overcast,120,2013-01-28 00:35:00
6:55 PM,32.0,30.0,92,30.10,7.0,SE,15.0,20.7,N/A,,Overcast,130,2013-01-28 00:55:00
7:15 PM,32.0,30.2,93,30.08,7.0,SE,17.3,24.2,N/A,,Overcast,140,2013-01-28 01:15:00
7:35 PM,32.2,30.6,94,30.07,7.0,SE,16.1,28.8,N/A,,Overcast,140,2013-01-28 01:35:00
7:55 PM,32.4,30.7,94,30.05,7.0,SSE,17.3,-,N/A,,Overcast,150,2013-01-28 01:55:00
8:15 PM,32.5,30.9,94,30.03,7.0,SSE,19.6,24.2,N/A,,Overcast,150,2013-01-28 02:15:00
8:35 PM,32.9,31.3,94,30.04,7.0,SSE,12.7,20.7,N/A,,Overcast,160,2013-01-28 02:35:00
8:55 PM,33.1,31.6,94,30.04,7.0,SSE,15.0,20.7,N/A,,Overcast,160,2013-01-28 02:55:00
9:15 PM,33.1,32.0,96,30.02,4.0,SSE,20.7,25.3,N/A,,Overcast,160,2013-01-28 03:15:00
9:35 PM,32.9,32.2,97,30.00,5.0,SSE,21.9,26.5,N/A,,Overcast,150,2013-01-28 03:35:00
9:55 PM,33.1,32.5,98,29.98,5.0,SSE,20.7,25.3,N/A,,Overcast,150,2013-01-28 03:55:00
10:15 PM,33.3,32.9,99,29.98,7.0,SSE,19.6,26.5,N/A,,Overcast,160,2013-01-28 04:15:00
10:35 PM,33.8,33.1,97,29.99,7.0,SSE,15.0,23.0,N/A,,Overcast,160,2013-01-28 04:35:00
10:55 PM,34.2,33.8,99,30.01,7.0,SSE,12.7,-,N/A,,Overcast,160,2013-01-28 04:55:00
11:15 PM,34.7,34.2,98,30.01,5.0,South,9.2,17.3,N/A,,Overcast,180,2013-01-28 05:15:00
11:35 PM,34.7,34.3,99,29.99,4.0,South,10.4,-,N/A,,Overcast,170,2013-01-28 05:35:00
11:55 PM,34.7,34.3,99,30.00,2.5,South,8.1,-,N/A,,Overcast,180,2013-01-28 05:55:00